Waarnemingen

Advertentie
Mijn weer
Rotterdam Zestienhoven, Nederland (6344): temperatuur & dauwpunt: 18.02.2017 09:00:00 - 24.02.2017 09:00:00 (CET)Rotterdam Zestienhoven, Nederland (6344): temperatuur 5cm: 18.02.2017 09:00:00 - 24.02.2017 09:00:00 (CET)Rotterdam Zestienhoven, Nederland (6344): windsnelheid & windstoten: 18.02.2017 09:00:00 - 24.02.2017 09:00:00 (CET)Rotterdam Zestienhoven, Nederland (6344): windrichting: 18.02.2017 09:00:00 - 24.02.2017 09:00:00 (CET)Rotterdam Zestienhoven, Nederland (6344): luchtdruk: 18.02.2017 09:00:00 - 24.02.2017 09:00:00 (CET)Rotterdam Zestienhoven, Nederland (6344): zicht: 18.02.2017 09:00:00 - 24.02.2017 09:00:00 (CET)Rotterdam Zestienhoven, Nederland (6344): neerslag: 18.02.2017 09:00:00 - 24.02.2017 09:00:00 (CET)
Datum & Tijd tt [°C] td [°C] tt 5cm [°C] ff [km/u] ff [kn] fx [km/u] fx [kn] dd ppp [hPa] vv [km] rr [mm]
24.02.2017 09:00:00 4,8 3,3 3,8 9 5 18 10 W 1011,4 10 0,0
24.02.2017 08:00:00 2,7 1,4 1,8 11 6 40 21 W 1010,4 10 0,5
24.02.2017 07:00:00 2,9 1,5 1,6 15 8 22 12 W 1009,2 10 0,0
24.02.2017 06:00:00 3,5 1,4 2,3 24 13 36 19 WNW 1008,2 10 0,1
24.02.2017 05:00:00 3,9 0,8 2,9 28 15 43 23 WNW 1006,9 10 0,1
24.02.2017 04:00:00 3,2 1,5 2,9 26 14 65 35 W 1006,3 10 0,2
24.02.2017 03:00:00 4,6 2,6 3,6 24 13 40 21 WNW 1004,8 10 0,0
24.02.2017 02:00:00 4,8 2,5 3,8 28 15 43 23 WNW 1003,3 10 0,1
24.02.2017 01:00:00 4,6 1,8 3,8 35 19 58 31 WNW 1001,5 10 0,0
24.02.2017 00:00:00 5,0 2,3 4,4 39 21 72 39 NW 999,4 10 0,3
23.02.2017 23:00:00 5,1 3,1 4,7 55 30 90 49 NW 996,6 10 1,6
23.02.2017 22:00:00 5,4 3,9 5,0 48 26 83 45 W 992,7 5 0,3
23.02.2017 21:00:00 6,2 3,0 5,7 59 32 86 47 W 990,9 10 0,0
23.02.2017 20:00:00 7,4 2,3 6,9 65 35 90 49 W 990,0 10 0,0
23.02.2017 19:00:00 8,5 2,3 7,9 55 30 90 49 WZW 989,1 10 0,0
23.02.2017 18:00:00 8,7 2,4 7,4 55 30 97 53 WZW 987,9 10 0,1
23.02.2017 17:00:00 8,4 3,5 7,8 54 29 94 51 WZW 987,4 10 0,0
23.02.2017 16:00:00 9,2 4,5 8,6 54 29 94 51 ZW 986,8 10 0,0
23.02.2017 15:00:00 9,2 5,0 8,6 52 28 83 45 ZW 987,9 10 0,2
23.02.2017 14:00:00 10,2 6,7 10,1 55 30 90 49 ZW 988,4 10 0,0
23.02.2017 13:00:00 9,7 8,0 9,2 42 23 72 39 ZZW 989,5 10 0,4
23.02.2017 12:00:00 8,9 7,9 8,7 41 22 65 35 ZZW 990,9 4,0 0,4
23.02.2017 11:00:00 8,9 7,9 8,6 37 20 61 33 ZZW 993,4 10 0,1
23.02.2017 10:00:00 9,2 7,6 9,0 42 23 68 37 ZZW 995,2 10 0,0
23.02.2017 09:00:00 9,4 7,8 9,0 37 20 72 39 ZW 996,2 10 0,0
23.02.2017 08:00:00 9,2 8,2 8,8 41 22 61 33 ZW 997,9 10 0,1
23.02.2017 07:00:00 9,3 8,2 8,9 41 22 65 35 ZW 999,1 10 0,5
23.02.2017 06:00:00 9,2 8,3 8,8 42 23 65 35 ZW 999,7 9 0,2
23.02.2017 05:00:00 8,8 8,3 8,5 42 23 65 35 ZW 1000,5 7 0,2
23.02.2017 04:00:00 9,0 8,3 8,7 39 21 61 33 WZW 1001,7 6 1,8
23.02.2017 03:00:00 8,6 8,2 8,3 18 10 40 21 WZW 1003,1 4,6 2,0
23.02.2017 02:00:00 8,6 8,4 8,4 16 9 25 14 WZW 1004,1 3,1 0,5
23.02.2017 01:00:00 8,9 8,8 8,7 15 8 32 18 W 1004,6 4,5 0,9
23.02.2017 00:00:00 8,7 8,3 8,5 21 11 32 18 WZW 1004,7 6 1,6
22.02.2017 23:00:00 8,9 8,5 8,5 18 10 32 18 WZW 1005,2 7 1,9
22.02.2017 22:00:00 8,9 8,5 8,7 24 13 36 19 WZW 1005,6 8 0,7
22.02.2017 21:00:00 9,0 8,5 8,7 24 13 32 18 WZW 1005,5 10 2,6
22.02.2017 20:00:00 8,7 8,1 8,3 21 11 32 18 WZW 1005,7 8 2,7
22.02.2017 19:00:00 8,5 7,6 8,2 22 12 36 19 WZW 1005,9 9 0,8
22.02.2017 18:00:00 8,9 7,9 8,5 22 12 43 23 WZW 1005,7 10 0,4
22.02.2017 17:00:00 8,6 8,1 8,4 24 13 50 27 WZW 1005,8 4,5 3,5
22.02.2017 16:00:00 9,6 8,7 9,2 35 19 58 31 WZW 1005,0 5 0,7
22.02.2017 15:00:00 9,6 8,5 9,4 39 21 61 33 WZW 1004,9 10 0,1
22.02.2017 14:00:00 9,8 8,5 9,7 39 21 61 33 WZW 1005,1 10 0,0
22.02.2017 13:00:00 9,7 8,5 9,5 39 21 58 31 ZW 1005,8 9 0,2
22.02.2017 12:00:00 10,3 8,2 10,0 41 22 68 37 WZW 1006,2 10 0,0
22.02.2017 11:00:00 10,2 8,2 10,1 41 22 65 35 WZW 1006,6 10 0,0
22.02.2017 10:00:00 10,2 8,2 9,8 39 21 65 35 WZW 1006,2 10 0,0
22.02.2017 09:00:00 9,8 8,1 9,5 39 21 65 35 WZW 1006,4 10 0,0
22.02.2017 08:00:00 9,5 8,1 9,1 41 22 61 33 WZW 1006,2 10 0,0
22.02.2017 07:00:00 9,5 8,2 9,0 37 20 61 33 WZW 1006,0 9 0,4
22.02.2017 06:00:00 9,5 8,3 9,0 39 21 65 35 ZW 1006,2 8 1,0
22.02.2017 05:00:00 9,4 8,3 8,9 41 22 65 35 ZW 1006,4 7 1,0
22.02.2017 04:00:00 9,6 8,0 9,1 42 23 65 35 ZW 1006,8 10 0,0
22.02.2017 03:00:00 9,5 8,3 9,3 44 24 72 39 ZW 1007,7 10 0,0
22.02.2017 02:00:00 9,6 8,7 9,3 42 23 72 39 ZW 1008,3 8 0,0
22.02.2017 01:00:00 9,7 8,8 9,3 37 20 61 33 WZW 1009,1 8 0,0
22.02.2017 00:00:00 9,9 8,9 9,6 39 21 58 31 WZW 1009,5 10 0,0
21.02.2017 23:00:00 9,8 9,0 9,6 35 19 61 33 ZW 1010,1 8 0,0
21.02.2017 22:00:00 9,8 9,3 9,6 37 20 54 29 ZW 1010,7 3,3 0,7
21.02.2017 21:00:00 10,3 9,7 10,0 26 14 40 21 ZW 1011,5 4,6 0,0
21.02.2017 20:00:00 10,3 9,2 9,9 24 13 36 19 ZZW 1012,3 9 0,0
21.02.2017 19:00:00 9,7 8,6 9,4 18 10 32 18 ZW 1013,3 10 0,0
21.02.2017 18:00:00 9,7 6,9 9,0 15 8 29 16 ZZW 1013,7 10 0,0
21.02.2017 17:00:00 9,6 6,3 9,3 15 8 29 16 WZW 1014,5 10 0,0
21.02.2017 16:00:00 10,3 5,4 10,6 15 8 29 16 W 1015,1 10 0,0
21.02.2017 15:00:00 10,6 5,0 12,1 15 8 25 14 W 1015,4 10 0,0
21.02.2017 14:00:00 10,9 5,5 12,3 16 9 25 14 W 1016,1 10 0,0
21.02.2017 13:00:00 11,1 5,5 12,8 18 10 29 16 WNW 1016,4 10 0,0
21.02.2017 12:00:00 10,5 6,0 11,2 18 10 36 19 WNW 1016,4 10 0,0
21.02.2017 11:00:00 10,2 5,9 10,8 21 11 36 19 WNW 1016,3 10 0,0
21.02.2017 10:00:00 9,4 6,3 9,7 22 12 36 19 WNW 1016,0 10 0,0
21.02.2017 09:00:00 9,1 6,8 8,5 11 6 25 14 W 1015,5 10 0,0
21.02.2017 08:00:00 9,2 7,7 8,4 11 6 22 12 W 1014,8 10 0,0
21.02.2017 07:00:00 8,9 7,7 8,2 18 10 29 16 W 1014,4 10 0,0
21.02.2017 06:00:00 8,9 7,7 8,4 15 8 22 12 W 1014,1 10 0,0
21.02.2017 05:00:00 9,3 8,0 8,6 15 8 25 14 WZW 1014,3 10 0,0
21.02.2017 04:00:00 9,7 8,0 8,9 13 7 32 18 W 1014,5 10 0,0
21.02.2017 03:00:00 9,5 7,0 8,5 22 12 32 18 WNW 1015,0 10 0,0
21.02.2017 02:00:00 9,6 8,2 8,8 15 8 32 18 WNW 1014,9 10 0,0
21.02.2017 01:00:00 10,2 8,8 9,2 11 6 29 16 W 1014,8 10 0,0
21.02.2017 00:00:00 9,9 8,7 9,5 15 8 32 18 W 1014,6 10 0,0
20.02.2017 23:00:00 10,4 9,0 10,0 22 12 40 21 W 1014,6 10 0,0
20.02.2017 22:00:00 9,8 9,3 9,5 16 9 32 18 W 1014,3 5 1,0
20.02.2017 21:00:00 10,0 9,3 9,8 21 11 36 19 WZW 1014,3 5 1,0
20.02.2017 20:00:00 10,8 9,2 10,1 22 12 32 18 WZW 1014,0 10 0,0
20.02.2017 19:00:00 10,4 9,1 9,8 24 13 40 21 WZW 1014,0 10 0,0
20.02.2017 18:00:00 9,7 9,0 9,3 22 12 40 21 WZW 1013,8 10 0,0
20.02.2017 17:00:00 10,1 9,6 10,1 29 16 47 25 WZW 1014,1 7 0,0
20.02.2017 16:00:00 10,2 9,8 10,1 28 15 40 21 WZW 1014,1 5 0,0
20.02.2017 15:00:00 9,8 9,5 9,7 18 10 32 18 ZW 1014,6 3,7 0,0
20.02.2017 14:00:00 9,4 9,2 9,3 21 11 32 18 ZW 1015,0 3,1 0,0
20.02.2017 13:00:00 8,8 8,7 8,9 22 12 36 19 ZW 1015,5 2,5 0,3
20.02.2017 12:00:00 8,9 8,7 8,9 22 12 36 19 WZW 1016,3 1,6 1,0
20.02.2017 11:00:00 8,5 8,3 8,5 24 13 36 19 ZW 1016,4 2,6 0,3
20.02.2017 10:00:00 8,6 8,4 8,6 22 12 36 19 ZW 1016,9 1,9 0,3
20.02.2017 09:00:00 8,4 8,2 8,3 22 12 36 19 ZW 1016,8 3,7 0,0
20.02.2017 08:00:00 8,3 7,8 8,1 18 10 40 21 ZW 1017,2 3,5 0,1
20.02.2017 07:00:00 8,1 7,8 7,9 22 12 36 19 ZW 1017,0 6 0,0
20.02.2017 06:00:00 7,9 7,6 7,7 24 13 32 18 ZW 1017,3 3,0 0,1
20.02.2017 05:00:00 7,7 7,3 7,5 21 11 32 18 ZW 1018,2 3,5 0,0
20.02.2017 04:00:00 7,7 7,3 7,5 24 13 32 18 ZW 1018,3 2,9 0,0
20.02.2017 03:00:00 7,9 6,8 7,7 24 13 32 18 ZW 1019,0 7 0,0
20.02.2017 02:00:00 7,7 6,7 7,4 18 10 25 14 ZZW 1019,5 8 0,0
20.02.2017 01:00:00 7,6 6,4 7,2 15 8 25 14 ZW 1020,4 10 0,0
20.02.2017 00:00:00 7,7 6,1 7,2 15 8 22 12 ZW 1020,6 10 0,0
19.02.2017 23:00:00 7,6 6,1 7,1 16 9 22 12 ZW 1021,0 10 0,0
19.02.2017 22:00:00 7,3 5,9 6,6 9 5 14 8 ZW 1021,0 10 0,0
19.02.2017 21:00:00 7,1 6,0 6,5 11 6 18 10 ZW 1021,0 8 0,0
19.02.2017 20:00:00 7,1 6,0 6,5 9 5 14 8 WZW 1021,1 8 0,0
19.02.2017 19:00:00 7,0 6,1 6,2 9 5 14 8 WZW 1021,0 7 0,0
19.02.2017 18:00:00 5,8 4,8 4,9 11 6 18 10 WZW 1020,4 8 0,0
19.02.2017 17:00:00 7,8 6,2 7,3 13 7 22 12 W 1020,4 9 0,0
19.02.2017 16:00:00 9,1 6,8 9,4 15 8 25 14 W 1020,4 10 0,0
19.02.2017 15:00:00 8,7 6,7 9,0 16 9 25 14 W 1020,4 8 0,0
19.02.2017 14:00:00 8,4 6,7 9,1 16 9 25 14 WZW 1020,4 7 0,0
19.02.2017 13:00:00 7,9 6,4 8,3 15 8 29 16 W 1020,7 5 0,0
19.02.2017 12:00:00 7,1 6,3 7,0 16 9 29 16 WZW 1021,2 3,6 0,1
19.02.2017 11:00:00 6,3 5,6 6,0 16 9 29 16 ZW 1021,1 2,9 0,0
19.02.2017 10:00:00 5,7 5,1 5,4 21 11 32 18 ZW 1021,0 3,2 0,0
19.02.2017 09:00:00 5,3 4,7 5,1 18 10 29 16 ZW 1021,3 2,7 0,0
19.02.2017 08:00:00 4,5 4,1 4,3 22 12 36 19 ZW 1021,1 2,6 0,0
19.02.2017 07:00:00 4,0 3,5 3,7 18 10 32 18 ZW 1021,0 3,0 0,0
19.02.2017 06:00:00 3,9 2,8 3,1 21 11 32 18 ZW 1021,1 6 0,0
19.02.2017 05:00:00 4,2 2,9 3,2 16 9 25 14 ZW 1021,8 6 0,0
19.02.2017 04:00:00 5,0 3,4 3,8 21 11 29 16 ZZW 1021,7 8 0,0
19.02.2017 03:00:00 5,1 3,3 3,9 18 10 29 16 ZW 1022,3 8 0,0
19.02.2017 02:00:00 5,0 3,6 3,6 13 7 22 12 ZW 1022,9 7 0,0
19.02.2017 01:00:00 5,2 4,1 3,8 15 8 22 12 ZW 1023,7 6 0,0
19.02.2017 00:00:00 3,5 2,6 2,1 9 5 22 12 ZW 1023,8 7 0,0
18.02.2017 23:00:00 6,1 4,4 4,1 15 8 22 12 ZW 1024,1 9 0,0
18.02.2017 22:00:00 5,4 3,2 3,6 13 7 22 12 ZZW 1024,3 10 0,0
18.02.2017 21:00:00 5,9 4,0 3,4 11 6 18 10 Z 1024,3 7 0,0
18.02.2017 20:00:00 5,3 4,0 1,5 9 5 14 8 ZZW 1024,6 6 0,0
18.02.2017 19:00:00 6,1 5,0 3,6 11 6 18 10 Z 1024,9 5 0,0
18.02.2017 18:00:00 7,0 5,2 5,3 9 5 22 12 Z 1025,0 7 0,0
18.02.2017 17:00:00 7,7 6,0 7,5 11 6 22 12 ZW 1025,2 4,3 0,0
18.02.2017 16:00:00 8,7 5,2 9,3 14 8 22 12 Z 1025,5 12 0,0
18.02.2017 15:00:00 8,5 5,5 9,7 13 7 18 10 Z 1025,8 8 0,0
18.02.2017 14:00:00 7,8 6,2 8,7 11 6 18 10 Z 1026,4 4,7 0,0
18.02.2017 13:00:00 6,1 6,0 6,6 11 6 18 10 Z 1027,3 2,1 0,0
18.02.2017 12:00:00 5,2 5,1 6,0 8 4 11 6 ZZO 1027,6 0,6 0,0
18.02.2017 11:00:00 4,6 4,5 5,4 5 3 18 10 ZZW 1027,6 0,2 0,0
18.02.2017 10:00:00 4,1 4,0 4,8 5 3 32 18 ZZO 1027,4 0,1 0,0
18.02.2017 09:00:00 3,7 3,6 3,9 8 4 14 8 Z 1027,4 0,1 0,0

tt = temperatuur
td = dauwpunt
tt 5cm = temperatuur 5cm
ff = windsnelheid
fx = windstoten
dd = windrichting
ppp = luchtdruk
vv = zicht
rr = neerslag

Weerstations in de omgeving